星链-4120 (STARLINK-4120 )

导读

STARLINK-4120是美国太空探索技术公司星链星座的一员,于2022年8月19日发射入轨,属于星链互联网卫星项目。它依托星链组网布局,承担全球卫星互联网通信服务任务,为偏远地区、海洋船舶等提供低时延互联网接入,是美国大规模低轨卫星互联网星座构建中的重要组网卫星。

Basic Information
目录编号:
53537
目录名称:
STARLINK-4120
国际标识:
2022-101L
轨道中心:
EARTH
卫星名称:
星链-4120
卫星全名:
星链-4120 (STARLINK-4120 )
卫星状态:
在轨 (已飞行1485 天)
发射日期:
2022-08-19 UTC
国别 :
美国 (US)
星等 :
--
This satellite is enrolled in the Space Conjunction Data Service (SCDS) and the current flight risk assessment level is: No High Risk
Orbit Information
数据来源 国际轨道数据 AOE轨道数据
星历时间 2026-09-12T12:07:00+0800
6小时前
查看轨道信息
2026-09-07T06:00:00+0800
5天前
查看轨道信息
半长轴 6837.856km 6837.886km
偏心率 0.0001026 0.0001227
轨道倾角 53.161° 53.160°
近地点辐角 83.327° 98.893°
升交点赤经 308.370° 332.975°
平近点角 276.785° 358.963°
近地点 459.017km 458.909km
远地点 460.421km 460.589km
周期 93.786分钟 93.787分钟
每日圈数 15.354049 15.353945
Detailed Information
固有亮度:
5
最大亮度:
2.5
卫星平台:
Starlink v1.5
覆盖范围:
全球
运营商:
太空探索技术公司
运营商所在国:
美国
制造商(研发单位):
太空探索技术公司
制造商所在国:
美国
使用方式:
暂无
Satellite Introduction
星链(Starlink)计划是由太空探索技术公司(SpaceX)提出的一个巨型低轨卫星互联网星座项目,计划在2019年至2024年间在太空搭建由约1.2万颗卫星组成的“星链”网络,其中1584颗将部署在地球上空550千米处的近地轨道,并从2020年开始工作。该卫星仍在工作。
2D Orbit Map
3D Orbit Map
Orbit Altitude Analysis Chart
Orbit Inclination Analysis Chart
Orbit Comprehensive Analysis Chart
View Comprehensive Chart
Conjunction Data List
Event ID Objects TCA Miss Dist (km) Collision Risk Probability Collision Risk Index (CRI) Action
CDM_260914-201805-353706-277421
2026-09-14T
20:18:54+0000
2.276 km
极远距离
1.795493E-6 低风险 0.4
CDM_260913-130105-353706-562923
2026-09-13T
13:01:24+0000
2.739 km
极远距离
1.329026E-6 低风险 0.37
CDM_260913-024105-353706-916221
2026-09-13T
02:41:03+0000
2.768 km
极远距离
1.316372E-6 低风险 0.37
CDM_260914-030505-353706-059922
2026-09-14T
03:05:40+0000
2.819 km
极远距离
1.270126E-6 低风险 0.37
CDM_260912-133305-353706-825823
2026-09-12T
13:33:46+0000
2.935 km
极远距离
1.222234E-6 低风险 0.37
CDM_260914-014005-353706-589823
2026-09-14T
01:40:55+0000
2.978 km
极远距离
9.84334E-7 极低风险 0.35
CDM_260914-141505-353706-338321
2026-09-14T
14:15:51+0000
2.656 km
极远距离
7.122539E-7 极低风险 0.32
CDM_260914-111305-353706-094021
2026-09-14T
11:13:37+0000
2.959 km
极远距离
6.087006E-7 极低风险 0.31
CDM_260913-210605-353706-417621
2026-09-13T
21:06:52+0000
2.515 km
极远距离
4.058759E-7 极低风险 0.27
Miss Distance Evolution Trend with All Objects
Collision Probability Evolution Trend with All Objects